Find Starlink 35937

NORAD ID: 66517 Int'l Des: 2025-265 Owner: SPXS Country: US Constellation: starlink operational
LEOCIRCULAR

Live-Position

3D-Globus wird geladen...

Über Starlink 35937

Beschreibung wird geladen...

Nächste Überflüge

Passes for default location (London). Set your location on the main map for personalized predictions.

Höhenverlauf

Loading altitude history...

Zweizeiliger Elementsatz

1 66517U 25265B 26107.23506825 .00010731 00000-0 39889-3 0 9994
2 66517 43.0027 60.6635 0001201 69.9198 290.1783 15.27580858 23009
Epoch: 17. Apr. 2026 • Age: 12 hours

Aktueller Status

Höhe 494.1 km
Geschwindigkeit 7.62 km/s
Subsatellitenpunkt -35.76°S, 177.14°E
Startdatum 19. Nov. 2025
Alter 0.4 years
Typ internet

Technische Details

Klassifizierung Payload
Masse 575.00 kg
Trockenmasse 530.00 kg
Gesamtmasse 575.00 kg
Länge 0.30 m
Durchmesser 4.10 m
Spannweite 29.00 m
Form Box + pan
Hersteller SPXS
Bus-Typ Starlink V2MO
Phasenstatus In Orbit
Besitzer/Staat SPXS/US

Most Searched